Location: Borojevi?i
(45.0486°N, 16.2297°E)
Time: 05:24:35
(UTC+00:00)

Cosmos 1300 Rocket - Pass Details

Date: 08 August 2020
Orbit: 603 x 625 km, 82.5° (Epoch: 23 September)

Event Time Altitude Azimuth Distance (km) Brightness Sun altitude
Exits shadow 23:52:29 48° 12° (NNE) 790 4.4 -28.0°
Drops below altitude 10° 23:55:39 10° 10° (N) 1,959 7.1 -27.9°
Sets 23:57:53 0° 10° (N) 2,867 8.2 -27.8°
